Regional Weather Roundup
Issued by NWS

Home | Current Version | Previous Version | Text Only | Print | Product List | Glossary On
Versions: 1 2 3 4 5 6 7 8 9 10 11 12 13 14 15 16 17 18 19 20 21 22 23 24 25 26 27 28 29 30 31 32 33 34 35 36 37 38 39 40 41 42 43 44 45 46 47 48 49 50
000
ASCA42 TJSJ 211311
RWRPR
PUERTO RICO/U.S. VIRGIN ISLANDS HOURLY WEATHER ROUNDUP
NATIONAL WEATHER SERVICE SAN JUAN PR
900 AM AST TUE OCT 21 2014

PRZ001-004-211400-
PUERTO RICO

CITY           SKY/WX    TMP DP  RH WIND       PRES   REMARKS
SAN JUAN LMM   MOSUNNY   84  75  74 VRB7      29.98R HX  92
MAYAGUEZ       MOSUNNY   79  70  73 E5        29.99R
AGUADILLA      SUNNY     82  73  74 E10       29.99R
CEIBA          MOSUNNY   84  75  74 E7        30.01R HX  92
$$

PRZ006-007-211400-
U.S. VIRGIN ISLANDS

CITY           SKY/WX    TMP DP  RH WIND       PRES   REMARKS
CHRISTIANSTED  MOSUNNY   86  73  66 E14       29.98R HX  93
$$

HOURLY WEATHER ROUNDUP FOR THE NEWS MEDIA

CITY           SKY/WX    TMP DP  RH WIND       PRES   REMARKS
MIAMI          CLOUDY    78  72  81 S5        29.96R
ORLANDO        CLOUDY    74  70  87 CALM      29.97R
NEW YORK       PTSUNNY   59  48  67 E5        29.91S
NEWARK         PTSUNNY   58  49  72 NE3       29.90S
CHICAGO        MOCLDY    46  39  76 N14       30.12R
HARTFORD       CLOUDY    52  50  93 CALM      29.96R
BOSTON         CLOUDY    57  54  89 SE7       29.98R
DALLAS         PTCLDY    61  56  83 CALM      30.09R
PHILADELPHIA   MOSUNNY   56  51  84 E3        29.88S


USA.gov is the U.S. government's official web portal to all federal, state and local government web resources and services.